Location: Burbank
(38.7788°N, 114.0429°W)
Time: 02:28:07
(UTC+00:00)

Tiros 1 despin weight - Pass Details

Date: 13 May 2026
Orbit: 554 x 591 km, 48.2° (Epoch: 6 June)

Event Time Altitude Azimuth Distance (km) Brightness Sun altitude
Rises 13:34:20 0° 245° (WSW) 2,747 ? 11.8°
Reaches altitude 10° 13:36:36 10° 248° (WSW) 1,847 ? 12.2°
Maximum altitude 13:40:48 65° 330° (NNW) 616 ? 13.0°
Drops below altitude 10° 13:44:58 10° 53° (NE) 1,838 ? 13.8°
Sets 13:47:14 0° 57° (ENE) 2,732 ? 14.2°
